KD5KNZ-13 Weather Reports


time (UTC)temp
F
wind
direction
speed
knots
gust
knots
rain 1hr
in
rain 24hr
in
rain mn
in
humidity
%
barometer
mb
20260504190050 78 24 1.7 5.2 0.00 0.00 0.00 45 1016.1
20260504184602 77 96 1.7 6.1 0.00 0.00 0.00 44 1016.2
20260504183054 77 217 0.9 5.2 0.00 0.00 0.00 44 1016.5
20260504181545 78 225 0.9 7.0 0.00 0.00 0.00 43 1016.6
20260504180045 77 44 0.0 8.7 0.00 0.00 0.00 41 1016.7
20260504174550 77 246 0.0 3.5 0.00 0.00 0.00 41 1016.9
20260504173046 77 226 0.9 7.0 0.00 0.00 0.00 41 1017.1
20260504171544 76 80 0.0 3.5 0.00 0.00 0.00 41 1017.0
20260504081548 51 0 0.0 0.0 0.00 0.01 0.00 94 1017.3
20260504044543 55 0 0.0 0.0 0.00 0.01 0.01 91 1018.5
20260504043041 56 0 0.0 0.0 0.00 0.01 0.01 91 1018.5
20260504041536 56 0 0.0 0.0 0.00 0.01 0.01 91 1018.6
20260504040038 56 0 0.0 0.0 0.00 0.01 0.01 91 1018.5
20260504034551 56 0 0.0 0.0 0.00 0.01 0.01 90 1018.6
20260504033044 57 0 0.0 0.0 0.00 0.01 0.01 90 1018.5
20260504031545 57 0 0.0 0.0 0.00 0.01 0.01 90 1018.6
20260504030043 57 0 0.0 0.0 0.00 0.01 0.01 89 1018.5
20260504024545 58 0 0.0 0.0 0.00 0.02 0.01 88 1018.4
20260504023050 59 0 0.0 0.0 0.00 0.02 0.01 87 1018.3
20260504021544 59 0 0.0 0.0 0.00 0.02 0.01 85 1018.2
20260504020042 60 0 0.0 0.0 0.00 0.02 0.01 83 1018.0
20260504014553 61 0 0.0 0.0 0.00 0.02 0.01 81 1017.9
20260504013038 62 0 0.0 0.0 0.00 0.02 0.01 79 1017.8
20260504011542 63 0 0.0 0.0 0.00 0.02 0.01 76 1017.6
20260504010038 64 0 0.0 0.0 0.00 0.02 0.01 74 1017.4
20260504004546 65 0 0.0 0.0 0.00 0.02 0.01 71 1017.5
20260504003050 67 0 0.0 0.0 0.00 0.02 0.01 71 1017.3
20260504001542 68 0 0.0 0.0 0.00 0.02 0.01 68 1017.3
20260504000049 70 0 0.0 0.0 0.00 0.02 0.01 63 1017.3
20260503234546 71 0 0.0 0.0 0.00 0.02 0.01 57 1017.4
20260503233043 72 0 0.0 0.0 0.00 0.02 0.01 53 1017.5
20260503231545 73 0 0.0 0.0 0.00 0.02 0.01 51 1017.5
20260503230045 74 196 0.0 0.9 0.00 0.02 0.01 45 1017.4
20260503224548 74 0 0.0 0.9 0.00 0.03 0.01 41 1017.4
20260503223053 74 0 0.0 0.9 0.00 0.03 0.01 42 1017.4
20260503221548 75 0 0.0 0.9 0.00 0.03 0.01 41 1017.6
20260503220052 75 0 0.0 0.9 0.00 0.03 0.01 41 1017.7
20260503214546 75 343 0.0 1.7 0.00 0.04 0.01 42 1018.1
20260503213050 77 51 0.0 1.7 0.00 0.04 0.01 38 1018.4
20260503211544 77 0 0.0 0.9 0.00 0.04 0.01 38 1018.6
20260503210042 76 0 0.0 1.7 0.00 0.04 0.01 39 1018.8
20260503204538 77 303 0.0 2.6 0.00 0.05 0.01 38 1018.9
20260503203052 78 0 0.0 1.7 0.00 0.05 0.01 39 1019.1
20260503201537 78 158 0.0 2.6 0.00 0.05 0.01 35 1019.2
20260503200037 79 283 0.0 3.5 0.00 0.05 0.01 37 1019.6
20260503194539 77 0 0.0 2.6 0.00 0.06 0.01 40 1019.9
20260503193048 77 128 0.0 1.7 0.00 0.06 0.01 40 1020.2
20260503191538 76 0 0.9 1.7 0.00 0.06 0.01 40 1020.4